FALCON 9 DEB (55967 NORAD) Tracking and Keplerian Element Data

This shows tracking and keplerian element data for the satellite.

Feedback or suggestion? Click here.




ElementValue
Catalog55967
NameFALCON 9 DEB
Epoch Orbit141
Epoch Day84.57390159
Epoch Year2023
RAAN159.1972
Inclination69.9842
Eccentricity0.0042248
Argument of Perigee153.0674
Mean Anonmoly207.2753
Mean Motion16.17803402
Decay Rate0.02047858
L11 55967U 23037BF 23084.57390159 .02047858 41067-5 10573-2 0 9998
L22 55967 69.9842 159.1972 0042248 153.0674 207.2753 16.17803402 1416



Live tracking and technical data element details for FALCON 9 DEB (NORAD 55967). FALCON 9 DEB can be tracked NOW for your location showing map with azimuth and elevation plus other details from your city location.







IsCatalogInMostPopularTable: catalog: 55967, numindb: 7
Update: records affected: 1



GetName: 55967 FALCON 9 DEB

Hit Count: updated at: Tue, 06 Jun 2023 02:47:59 GMT